CAPE
0 0 0 0 0 0 0 0 0 0 0 0 0 0 0 0 0 0 662 623 854 1165 1303 1536 1306 1355 1339 1343 1409 1617 1961 2134 2135 2044 1974 1985 2070 2109 2137 2074 2106 2136 2178 1807 1685 1782 1736 1678 1767
0 0 0 0 0 0 0 0 0 0 0 0 0 0 0 0 5 324 872 713 979 1319 1390 1602 1341 1376 1436 1396 1490 1682 2043 2123 2079 2080 2068 2111 2186 2190 2203 2119 2027 2150 2291 2017 1793 1757 1743 1703 1655
0 0 0 0 0 0 0 0 0 0 0 0 0 0 0 0 131 905 903 911 1091 1357 1451 1661 1392 1398 1491 1516 1593 1702 1832 1852 1911 1998 2176 2238 2284 2306 2254 2064 1976 2162 2306 2170 1854 1746 1636 1508 1281
0 0 0 0 0 0 0 0 0 0 0 0 0 0 0 0 262 950 1102 1028 1279 1485 1511 1436 1413 1461 1544 1653 1708 1751 1683 1660 1775 1944 2165 2339 2361 2346 2226 2020 2078 2255 2263 2192 1801 1592 1454 1096 974
0 0 0 0 0 0 0 0 0 0 0 0 0 0 0 0 915 1151 1348 1230 1430 1650 1693 1728 1470 1510 1632 1838 1838 1707 1569 1575 1749 1969 2100 2254 2334 2297 2054 1979 2124 2098 2104 1991 1807 1463 1148 950 744
0 0 0 0 0 0 0 0 0 0 0 0 0 0 0 175 701 1157 1348 1416 1447 1680 1803 1863 1487 1558 1670 1820 1772 1546 1454 1510 1698 1888 2056 2181 2192 2016 1892 1981 2077 2022 1900 1694 1374 1120 1019 862 598
0 0 0 0 0 0 0 0 0 0 0 0 0 0 0 0 318 1010 1083 1228 1414 1565 1795 1949 1941 1740 1658 1766 1704 1417 1348 1436 1586 1742 1909 2019 1875 1757 1745 1998 2013 1961 1630 1344 1086 895 804 809 540
0 0 0 0 0 0 0 0 0 0 0 0 0 0 0 0 433 816 1053 1070 1288 1412 1698 1850 1921 1956 2031 2024 1683 1403 1304 1361 1488 1560 1688 1736 1607 1618 1578 1834 1871 1749 1386 1095 920 674 686 674 658
0 0 0 0 0 0 0 0 0 0 0 0 0 0 0 0 546 721 942 1142 1005 1033 1413 1605 1724 1874 1978 1697 1790 1487 1288 1295 1409 1459 1512 1532 1871 1898 1762 1610 1589 1466 1087 869 729 562 581 571 488
0 0 0 0 0 0 0 0 0 0 0 0 0 0 0 200 630 625 943 1188 1008 1066 1182 1291 1495 1677 1703 1348 1634 1888 1791 1654 1726 1826 1889 1997 1924 1831 1726 1578 1394 1429 1028 726 580 506 525 608 1034
0 0 0 0 0 0 0 0 0 0 0 0 0 0 0 0 0 286 649 835 1159 841 1027 1105 1332 1545 1292 1179 1372 1540 1718 1705 1782 1892 1964 1901 1849 1781 1697 2072 1825 1924 1225 1321 643 704 872 1094 997
0 0 0 0 0 0 0 0 0 0 0 0 0 0 0 0 0 0 266 623 852 402 779 1060 1209 1257 1306 1242 1177 1400 1329 1420 1492 1493 1428 1540 1679 1857 1869 1720 2017 1912 1627 1530 1334 1209 923 957 553
0 0 0 0 0 0 0 0 0 0 0 0 0 0 0 0 0 0 0 220 318 389 556 773 905 982 903 1181 1067 1055 1252 1693 1607 1791 1304 1384 1298 1353 1505 1756 1797 1789 1590 1485 1332 1014 852 758 676
0 0 0 0 0 0 0 0 0 0 0 0 0 0 0 0 0 0 0 13 409 318 221 715 610 637 753 906 1161 1082 1222 1719 1840 1488 2224 1995 1186 1315 1100 1357 1639 1734 1607 1330 1237 990 737 699 638
0 0 0 0 0 0 0 0 0 0 0 0 0 0 0 0 0 0 0 0 371 691 376 605 617 999 733 829 1113 1039 1399 1515 1783 1930 2003 2242 1707 1236 1105 1044 1256 1576 1537 1368 1221 1006 682 626 499
0 0 0 0 0 0 0 0 0 0 0 0 0 0 0 0 0 0 0 0 0 700 651 587 748 613 1161 971 798 974 1022 845 910 1087 1173 1959 2186 1644 963 1328 984 1396 1392 1341 1207 1055 845 692 551
0 0 0 0 0 0 0 0 0 0 0 0 0 0 0 0 0 0 0 0 0 282 1343 741 971 1038 1125 959 616 589 619 616 596 504 583 1321 1739 1692 967 1097 1050 1179 1279 1055 1099 779 938 573 386
0 0 0 0 0 0 0 0 0 0 0 0 0 0 0 0 0 0 0 0 0 45 1569 1364 952 1015 1282 1337 1087 808 454 518 417 482 484 888 1220 1338 1314 1209 749 1181 1069 845 787 758 647 622 614
0 0 0 0 0 0 0 0 0 0 0 0 0 0 0 0 0 0 0 0 0 0 1361 1863 1408 1077 1116 1257 1247 1039 929 667 652 904 1031 865 839 1160 1425 1118 1199 1050 789 768 748 736 618 573 482
0 0 0 0 0 0 0 0 0 0 0 0 0 0 0 0 0 0 0 0 0 0 838 1847 1995 1533 1071 1071 1303 1324 1386 1221 976 1027 982 1015 1119 898 1033 1007 962 729 714 721 767 711 747 705 580
0 0 0 0 0 0 0 0 0 0 0 0 0 0 0 0 0 0 0 0 0 0 0 1400 1960 1967 1695 1461 1483 1319 1326 1213 1286 1037 842 948 1015 1125 1182 1099 849 712 798 831 828 868 868 586 492
0 0 0 0 0 0 0 0 0 0 0 0 0 0 0 0 0 0 0 0 0 0 0 880 1634 2098 2166 2068 1842 1624 1516 1300 1441 1247 996 985 1097 1121 1027 1120 956 914 843 1034 1056 1074 1080 837 521
0 0 0 0 0 0 0 0 0 0 0 0 0 0 9 61 0 0 0 0 0 0 0 95 896 1474 1930 2145 2062 2041 1990 2160 1949 1649 1488 1423 1390 1048 939 746 687 892 879 1052 1169 1268 1222 1164 1154
0 0 0 0 0 0 0 0 0 0 0 0 0 0 0 27 0 0 0 0 0 0 0 0 197 942 1244 1554 1712 1914 1714 1728 1749 1623 1440 1634 1116 1062 746 326 8 198 645 961 1045 1154 1246 1041 1132
0 0 0 0 0 0 0 0 0 0 0 0 0 0 0 15 49 5 0 3 5 0 0 2 74 355 864 1330 1925 1877 1808 1752 1554 1492 1461 1346 932 670 385 64 61 435 784 829 874 942 914 924 732
0 0 0 0 0 0 0 0 0 0 0 2 0 18 33 36 38 32 84 122 192 164 59 66 93 157 364 767 1300 1409 1254 1217 1670 1274 1039 658 427 359 352 348 437 628 803 771 880 1212 902 696 710
14 4 0 0 0 0 0 0 0 0 0 0 0 19 3 41 43 104 167 192 191 211 203 173 214 202 272 527 427 481 1012 896 842 752 715 431 196 55 117 236 408 572 893 933 1192 1592 1186 718 469
0 2 37 0 0 0 0 0 0 0 0 18 0 17 29 59 55 148 126 201 256 361 337 333 474 473 498 524 376 319 233 190 124 51 11 14 43 85 89 116 124 195 826 1604 1421 1582 1449 1101 637
0 0 0 0 0 0 0 0 0 0 0 7 0 0 51 45 26 61 129 227 374 328 348 293 168 340 412 388 214 54 31 24 6 0 0 0 0 0 0 0 0 0 5 130 594 597 1079 1226 901
0 0 0 0 11 8 0 0 0 0 0 0 1 3 0 24 34 31 76 184 283 274 233 231 157 192 194 89 72 11 7 0 0 0 0 0 0 0 0 0 0 0 0 2 22 25 552 800 1048
CIN
-0 -0 -0 -0 -0 -0 -0 -0 -0 -0 -0 -0 -0 -0 -0 -0 -39 -0 -540 -617 -578 -491 -442 -357 -346 -275 -220 -167 -153 -110 -64 -46 -45 -45 -42 -32 -19 -6 -0 -0 -0 -0 -0 -2 -10 -7 -11 -17 -15
-0 -0 -0 -0 -0 -0 -0 -0 -0 -0 -0 -0 -0 -0 -0 -0 -174 -250 -399 -611 -531 -476 -438 -350 -372 -299 -227 -182 -127 -92 -50 -41 -40 -37 -33 -20 -9 -1 -0 -0 -1 -0 -0 -0 -5 -7 -12 -14 -16
-0 -0 -0 -0 -0 -0 -0 -0 -0 -0 -0 -0 -0 -0 -0 -0 -311 -228 -465 -554 -511 -457 -428 -344 -375 -309 -225 -185 -119 -72 -61 -62 -51 -43 -21 -14 -1 -0 -0 -0 -2 -0 -0 -0 -5 -9 -17 -26 -40
-0 -0 -0 -0 -0 -0 -0 -0 -0 -0 -0 -0 -0 -0 -0 -0 -316 -338 -500 -522 -432 -429 -409 -409 -376 -296 -223 -150 -96 -80 -74 -83 -67 -48 -24 -9 -0 -0 -0 -1 -1 -0 -0 -0 -9 -23 -31 -71 -71
-0 -0 -0 -0 -0 -0 -0 -0 -0 -0 -0 -0 -0 -0 -0 -0 -414 -439 -428 -483 -420 -368 -385 -365 -377 -309 -218 -119 -83 -92 -104 -94 -69 -48 -31 -15 -5 -2 -5 -4 -1 -1 -0 -2 -10 -35 -64 -85 -101
-0 -0 -0 -0 -0 -0 -0 -0 -0 -0 -0 -0 -0 -0 -0 -354 -377 -415 -396 -447 -429 -375 -337 -333 -375 -303 -221 -139 -120 -143 -150 -114 -73 -58 -39 -25 -14 -20 -23 -8 -1 -1 -1 -17 -54 -75 -84 -89 -117
-0 -0 -0 -0 -0 -0 -0 -0 -0 -0 -0 -0 -0 -0 -0 -0 -478 -434 -370 -431 -446 -405 -319 -263 -236 -238 -220 -144 -108 -149 -163 -135 -91 -67 -53 -42 -43 -48 -37 -11 -5 -1 -21 -53 -76 -93 -94 -87 -114
-0 -0 -0 -0 -0 -0 -0 -0 -0 -0 -0 -0 -0 -0 -0 -0 -472 -442 -309 -175 -396 -393 -333 -272 -219 -176 -137 -113 -136 -144 -156 -141 -112 -84 -69 -61 -62 -55 -51 -22 -16 -14 -34 -75 -89 -110 -90 -81 -67
-0 -0 -0 -0 -0 -0 -0 -0 -0 -0 -0 -0 -0 -0 -0 -0 -377 -374 -369 -156 -412 -437 -380 -317 -261 -200 -157 -178 -133 -135 -134 -144 -102 -107 -83 -65 -22 -15 -22 -32 -31 -27 -47 -90 -112 -117 -95 -80 -78
-0 -0 -0 -0 -0 -0 -0 -0 -0 -0 -0 -0 -0 -0 -0 -216 -230 -257 -261 -233 -129 -430 -436 -386 -316 -249 -202 -236 -164 -75 -45 -28 -28 -24 -28 -23 -29 -30 -27 -33 -39 -24 -38 -76 -107 -102 -90 -66 -10
-0 -0 -0 -0 -0 -0 -0 -0 -0 -0 -0 -0 -0 -0 -0 -0 -0 -271 -221 -247 -76 -376 -356 -396 -342 -273 -296 -281 -232 -179 -94 -58 -27 -25 -25 -30 -27 -30 -24 -0 -1 -0 -8 -0 -44 -43 -23 -18 -13
-0 -0 -0 -0 -0 -0 -0 -0 -0 -0 -0 -0 -0 -0 -0 -0 -0 -0 -252 -243 -92 -399 -387 -347 -309 -320 -305 -275 -262 -222 -215 -153 -113 -96 -79 -57 -34 -23 -19 -21 -0 -0 -0 -0 -0 -0 -16 -20 -62
-0 -0 -0 -0 -0 -0 -0 -0 -0 -0 -0 -0 -0 -0 -0 -0 -0 -0 -0 -232 -133 -58 -382 -373 -364 -330 -371 -297 -298 -286 -250 -149 -127 -79 -133 -108 -105 -90 -62 -27 -13 -2 -1 -0 -0 -10 -15 -19 -32
-0 -0 -0 -0 -0 -0 -0 -0 -0 -0 -0 -0 -0 -0 -0 -0 -0 -0 -0 -300 -241 -157 -371 -367 -440 -409 -390 -360 -289 -288 -235 -147 -114 -145 -45 -56 -142 -119 -127 -79 -29 -6 -1 -4 -0 -19 -25 -15 -20
-0 -0 -0 -0 -0 -0 -0 -0 -0 -0 -0 -0 -0 -0 -0 -0 -0 -0 -0 -0 -213 -206 -314 -372 -399 -324 -386 -367 -302 -297 -226 -162 -122 -106 -94 -56 -98 -148 -153 -138 -82 -25 -4 -0 -0 -1 -23 -15 -16
-0 -0 -0 -0 -0 -0 -0 -0 -0 -0 -0 -0 -0 -0 -0 -0 -0 -0 -0 -0 -0 -156 -220 -357 -359 -399 -279 -337 -350 -292 -266 -300 -261 -233 -204 -105 -68 -109 -179 -114 -138 -59 -21 -2 -0 -0 -3 -15 -23
-0 -0 -0 -0 -0 -0 -0 -0 -0 -0 -0 -0 -0 -0 -0 -0 -0 -0 -0 -0 -0 -150 -123 -270 -281 -297 -310 -320 -377 -372 -345 -348 -354 -340 -325 -196 -124 -116 -188 -153 -143 -99 -48 -52 -15 -29 -4 -40 -62
-0 -0 -0 -0 -0 -0 -0 -0 -0 -0 -0 -0 -0 -0 -0 -0 -0 -0 -0 -0 -0 -103 -102 -159 -264 -290 -268 -235 -262 -277 -355 -334 -374 -370 -352 -271 -210 -167 -147 -142 -204 -101 -88 -94 -66 -43 -29 -39 -23
-0 -0 -0 -0 -0 -0 -0 -0 -0 -0 -0 -0 -0 -0 -0 -0 -0 -0 -0 -0 -0 -0 -90 -89 -175 -244 -246 -202 -221 -244 -300 -310 -291 -255 -242 -253 -258 -212 -138 -145 -112 -128 -152 -143 -95 -53 -33 -40 -38
-0 -0 -0 -0 -0 -0 -0 -0 -0 -0 -0 -0 -0 -0 -0 -0 -0 -0 -0 -0 -0 -0 -109 -55 -89 -206 -252 -261 -258 -225 -229 -237 -251 -214 -241 -244 -203 -223 -184 -190 -164 -172 -153 -137 -94 -69 -30 -21 -24
-0 -0 -0 -0 -0 -0 -0 -0 -0 -0 -0 -0 -0 -0 -0 -0 -0 -0 -0 -0 -0 -0 -0 -80 -87 -137 -202 -222 -201 -192 -188 -168 -190 -259 -276 -255 -216 -173 -144 -159 -189 -197 -150 -132 -105 -54 -27 -36 -32
-0 -0 -0 -0 -0 -0 -0 -0 -0 -0 -0 -0 -0 -0 -0 -0 -0 -0 -0 -0 -0 -0 -0 -117 -92 -79 -123 -135 -150 -177 -227 -244 -261 -249 -252 -230 -169 -134 -93 -58 -75 -98 -55 -87 -71 -30 -3 -12 -34
-0 -0 -0 -0 -0 -0 -0 -0 -0 -0 -0 -0 -0 -0 -0 -26 -0 -0 -0 -0 -0 -0 -0 -339 -181 -102 -82 -79 -123 -128 -129 -109 -130 -157 -125 -123 -96 -99 -69 -50 -2 -22 -56 -53 -39 -9 -6 -5 -1
-0 -0 -0 -0 -0 -0 -0 -0 -0 -0 -0 -0 -0 -0 -0 -51 -0 -0 -0 -0 -0 -0 -0 -0 -347 -171 -136 -91 -94 -75 -110 -113 -100 -101 -111 -81 -89 -92 -81 -26 -8 -4 -7 -34 -49 -33 -17 -4 -8
-0 -0 -0 -0 -0 -0 -0 -0 -0 -0 -0 -0 -0 -0 -0 -10 -7 -6 -0 -64 -80 -0 -0 -242 -352 -259 -161 -102 -44 -65 -68 -78 -97 -75 -60 -67 -82 -70 -34 -24 -193 -86 -15 -29 -59 -47 -51 -19 -20
-0 -0 -0 -0 -0 -0 -0 -0 -0 -0 -0 -18 -0 -4 -4 -6 -16 -140 -110 -81 -56 -74 -252 -266 -320 -282 -222 -154 -80 -70 -97 -119 -51 -76 -75 -65 -57 -164 -175 -180 -231 -101 -63 -41 -37 -28 -24 -25 -22
-2 -0 -0 -0 -0 -0 -0 -0 -0 -0 -0 -1 -0 -0 -4 -4 -20 -63 -49 -42 -64 -129 -179 -192 -164 -206 -203 -155 -173 -178 -75 -99 -92 -85 -51 -49 -29 -168 -211 -197 -163 -108 -24 -23 -27 -5 -14 -30 -37
-0 -0 -0 -0 -0 -0 -0 -0 -0 -0 -0 -8 -0 -3 -4 -3 -13 -22 -23 -24 -52 -66 -80 -32 -52 -61 -85 -81 -106 -90 -82 -87 -53 -46 -26 -38 -58 -80 -76 -90 -101 -99 -26 -0 -0 -0 -0 -1 -8
-0 -0 -0 -0 -0 -0 -0 -0 -0 -0 -0 -4 -0 -0 -8 -4 -4 -17 -39 -29 -22 -42 -34 -19 -2 -1 -26 -25 -27 -21 -15 -25 -78 -0 -0 -0 -0 -0 -0 -0 -0 -0 -0 -141 -35 -25 -0 -0 -1
-0 -0 -0 -0 -0 -0 -0 -0 -0 -0 -0 -0 -7 -4 -0 -5 -2 -0 -6 -10 -3 -7 -12 -8 -7 -5 -0 -3 -0 -38 -57 -0 -0 -0 -0 -0 -0 -0 -0 -0 -0 -0 -0 -0 -7 -121 -10 -0 -0
Wind_Speed
nan nan nan nan nan nan nan nan nan nan nan nan nan nan nan nan nan nan 17 19 23 37 37 35 35 39 38 34 32 32 30 26 25 26 25 26 26 27 26 26 25 25 25 25 23 22 24 24 23
nan nan nan nan nan nan nan nan nan nan nan nan nan nan nan nan nan 13 21 22 27 35 36 38 40 41 39 37 32 32 32 29 27 27 26 26 27 28 26 26 24 26 27 26 25 24 24 24 22
nan nan nan nan nan nan nan nan nan nan nan nan nan nan nan nan 21 20 23 29 29 34 36 38 43 42 39 38 35 31 30 31 29 28 27 27 27 27 26 25 24 25 28 29 27 26 24 24 23
nan nan nan nan nan nan nan nan nan nan nan nan nan nan nan nan 24 26 32 34 33 35 39 40 42 40 40 38 37 35 29 29 29 28 29 29 28 27 26 25 25 25 27 29 29 27 25 25 24
nan nan nan nan nan nan nan nan nan nan nan nan nan nan nan nan 32 33 36 36 35 33 38 43 43 41 39 39 39 35 32 29 29 28 28 30 29 28 27 26 25 25 26 27 29 27 26 25 24
nan nan nan nan nan nan nan nan nan nan nan nan nan nan nan 34 36 36 32 35 35 35 38 42 45 42 39 39 38 36 35 31 28 28 26 29 29 27 27 26 27 26 26 25 27 27 26 26 26
nan nan nan nan nan nan nan nan nan nan nan nan nan nan nan nan 38 38 38 35 38 39 37 35 39 39 37 34 32 32 32 31 30 27 25 26 26 25 26 26 27 28 27 26 25 26 26 27 27
nan nan nan nan nan nan nan nan nan nan nan nan nan nan nan nan 44 44 44 42 40 42 39 39 35 35 34 34 30 29 27 29 30 27 25 23 22 22 24 25 26 28 28 27 26 25 25 25 25
nan nan nan nan nan nan nan nan nan nan nan nan nan nan nan nan 44 42 44 43 39 39 39 40 37 34 34 34 31 28 27 23 26 28 25 23 19 21 25 24 27 26 27 26 25 24 23 23 23
nan nan nan nan nan nan nan nan nan nan nan nan nan nan nan 44 41 37 37 36 35 33 34 38 36 32 31 31 30 27 26 21 21 22 24 20 20 19 20 22 26 25 24 23 23 23 23 21 19
nan nan nan nan nan nan nan nan nan nan nan nan nan nan nan nan nan 36 35 35 35 37 36 34 35 31 30 29 32 27 23 20 19 20 19 18 18 19 19 19 21 22 23 20 20 19 18 19 18
nan nan nan nan nan nan nan nan nan nan nan nan nan nan nan nan nan nan 36 36 41 40 39 36 30 30 30 28 30 30 27 23 19 19 19 17 15 17 19 19 21 21 21 21 20 15 16 18 17
nan nan nan nan nan nan nan nan nan nan nan nan nan nan nan nan nan nan nan 39 42 44 38 37 32 27 28 28 30 30 28 26 23 20 18 18 17 17 18 19 20 20 21 21 20 18 15 17 17
nan nan nan nan nan nan nan nan nan nan nan nan nan nan nan nan nan nan nan nan 43 42 44 39 35 30 28 26 27 27 28 29 26 23 21 19 17 19 19 19 19 20 19 21 20 20 16 16 16
nan nan nan nan nan nan nan nan nan nan nan nan nan nan nan nan nan nan nan nan 42 43 40 45 37 32 29 28 26 28 30 29 29 25 24 22 20 21 22 21 20 20 19 21 19 19 18 17 17
nan nan nan nan nan nan nan nan nan nan nan nan nan nan nan nan nan nan nan nan nan 43 48 43 46 36 34 30 28 31 30 31 29 30 24 24 23 24 24 24 23 23 19 19 21 21 20 17 18
nan nan nan nan nan nan nan nan nan nan nan nan nan nan nan nan nan nan nan nan nan 47 49 50 50 40 36 34 31 32 30 29 29 27 26 27 27 27 27 26 27 26 22 20 22 22 22 20 19
nan nan nan nan nan nan nan nan nan nan nan nan nan nan nan nan nan nan nan nan nan nan 53 52 52 46 39 41 35 35 35 29 30 30 29 28 29 29 28 27 30 29 25 21 21 24 23 23 21
nan nan nan nan nan nan nan nan nan nan nan nan nan nan nan nan nan nan nan nan nan nan 53 56 58 49 45 40 37 35 33 29 28 28 28 31 31 32 31 30 31 32 29 26 23 24 24 27 27
nan nan nan nan nan nan nan nan nan nan nan nan nan nan nan nan nan nan nan nan nan nan 57 58 56 55 47 39 36 35 33 33 30 31 29 31 32 34 35 33 34 35 34 31 28 27 27 27 30
nan nan nan nan nan nan nan nan nan nan nan nan nan nan nan nan nan nan nan nan nan nan nan 58 57 55 50 37 38 38 43 41 33 30 29 30 33 34 35 34 39 39 36 35 33 27 26 29 29
nan nan nan nan nan nan nan nan nan nan nan nan nan nan nan nan nan nan nan nan nan nan nan 64 59 58 52 41 38 35 39 37 29 30 35 36 37 41 37 41 42 40 41 35 35 33 27 29 30
nan nan nan nan nan nan nan nan nan nan nan nan nan nan nan nan nan nan nan nan nan nan nan nan 77 67 57 50 38 38 40 40 37 38 41 43 49 54 54 56 58 49 38 35 32 31 31 27 29
nan nan nan nan nan nan nan nan nan nan nan nan nan nan nan nan nan nan nan nan nan nan nan nan 88 85 79 68 49 43 40 45 44 42 46 47 53 53 52 53 nan 26 35 31 31 29 28 26 26
nan nan nan nan nan nan nan nan nan nan nan nan nan nan nan nan nan nan nan nan nan nan nan nan nan 90 85 78 68 65 60 59 53 51 47 50 50 50 52 nan nan 40 31 34 35 26 25 27 25
nan nan nan nan nan nan nan nan nan nan nan nan nan nan nan nan nan nan nan 60 69 81 nan nan nan 88 86 77 71 66 63 61 60 57 55 54 53 55 53 47 47 47 42 37 27 26 26 28 28
nan nan nan nan nan nan nan nan nan nan nan nan nan nan nan nan nan 36 46 57 55 67 81 84 85 84 83 74 72 70 66 65 58 57 59 58 58 nan 52 48 47 37 33 33 27 29 27 32 31
nan nan nan nan nan nan nan nan nan nan nan nan nan nan nan nan nan 36 48 45 50 56 74 66 79 82 80 73 72 68 66 61 60 nan nan nan nan nan nan 42 37 37 37 32 31 35 31 34 35
nan nan nan nan nan nan nan nan nan nan nan nan nan nan nan nan nan nan 40 43 43 52 63 78 56 53 68 74 73 nan nan nan nan nan nan nan nan nan nan nan nan nan nan 32 33 33 34 36 40
nan nan nan nan nan nan nan nan nan nan nan nan nan nan nan nan nan nan nan 42 47 50 54 62 68 74 63 nan nan nan nan nan nan nan nan nan nan nan nan nan nan nan nan nan nan nan 39 38 42
Wind_Direction
nan nan nan nan nan nan nan nan nan nan nan nan nan nan nan nan nan nan 248 305 299 309 312 317 315 316 317 320 322 318 312 308 310 315 319 319 318 318 321 321 318 320 319 317 312 306 304 305 304
nan nan nan nan nan nan nan nan nan nan nan nan nan nan nan nan nan 246 262 287 308 305 310 318 317 313 317 317 319 314 312 307 306 311 312 315 315 315 322 324 322 326 324 321 318 315 310 304 303
nan nan nan nan nan nan nan nan nan nan nan nan nan nan nan nan 259 267 264 295 304 303 308 312 312 312 313 314 315 312 311 305 303 306 310 315 315 317 321 324 324 330 328 324 322 319 316 307 302
nan nan nan nan nan nan nan nan nan nan nan nan nan nan nan nan 251 254 278 292 304 300 306 306 305 308 308 313 316 313 311 303 305 308 311 313 317 320 321 324 327 330 328 326 323 322 316 310 306
nan nan nan nan nan nan nan nan nan nan nan nan nan nan nan nan 247 255 277 285 300 301 304 306 301 305 305 312 314 313 310 306 307 307 309 312 316 321 323 325 326 327 326 324 321 321 317 314 311
nan nan nan nan nan nan nan nan nan nan nan nan nan nan nan 249 244 254 267 280 290 293 301 304 303 302 304 307 310 312 312 307 304 305 307 310 315 321 324 326 324 320 320 321 320 320 318 316 310
nan nan nan nan nan nan nan nan nan nan nan nan nan nan nan nan 247 260 262 269 276 288 293 295 301 304 299 298 300 306 312 309 304 301 300 301 307 315 322 326 324 318 316 321 323 321 318 318 319
nan nan nan nan nan nan nan nan nan nan nan nan nan nan nan nan 247 259 263 266 275 281 287 293 294 300 302 300 296 303 307 308 303 300 296 297 301 309 316 320 323 319 317 321 325 324 317 319 322
nan nan nan nan nan nan nan nan nan nan nan nan nan nan nan nan 250 254 260 264 268 277 290 291 291 296 297 294 297 297 302 302 301 301 298 296 304 314 317 321 322 320 317 319 326 325 314 316 320
nan nan nan nan nan nan nan nan nan nan nan nan nan nan nan 247 245 247 259 267 271 280 285 287 297 293 294 290 294 295 300 301 305 306 311 303 306 308 316 318 317 318 316 317 321 323 311 319 322
nan nan nan nan nan nan nan nan nan nan nan nan nan nan nan nan nan 246 250 260 265 266 269 278 285 293 291 289 285 277 282 291 297 309 306 301 296 300 307 309 314 315 315 317 317 318 321 321 322
nan nan nan nan nan nan nan nan nan nan nan nan nan nan nan nan nan nan 255 260 267 266 272 276 284 287 284 283 289 285 280 282 279 286 296 290 285 298 306 308 314 313 312 316 315 312 321 319 322
nan nan nan nan nan nan nan nan nan nan nan nan nan nan nan nan nan nan nan 256 267 267 267 274 276 282 280 285 283 287 279 278 279 275 280 277 285 291 296 303 307 307 309 313 309 307 315 316 320
nan nan nan nan nan nan nan nan nan nan nan nan nan nan nan nan nan nan nan nan 266 268 271 272 279 280 280 285 287 275 272 273 275 272 273 279 281 285 295 296 301 301 305 306 308 303 308 311 313
nan nan nan nan nan nan nan nan nan nan nan nan nan nan nan nan nan nan nan nan 253 260 267 276 274 275 276 283 277 272 267 269 267 269 279 279 280 284 287 288 293 294 296 303 299 298 297 300 304
nan nan nan nan nan nan nan nan nan nan nan nan nan nan nan nan nan nan nan nan nan 250 263 268 272 274 274 274 274 262 263 264 263 268 273 280 280 281 279 279 283 286 289 293 296 298 295 299 303
nan nan nan nan nan nan nan nan nan nan nan nan nan nan nan nan nan nan nan nan nan 251 258 264 269 271 275 274 269 265 263 258 261 260 265 273 272 274 275 274 279 286 286 288 293 293 296 299 299
nan nan nan nan nan nan nan nan nan nan nan nan nan nan nan nan nan nan nan nan nan nan 256 259 259 263 265 266 264 260 262 254 258 261 262 276 275 279 278 278 280 283 281 281 284 290 294 295 300
nan nan nan nan nan nan nan nan nan nan nan nan nan nan nan nan nan nan nan nan nan nan 251 257 259 254 250 259 267 262 266 259 252 257 269 272 272 281 282 271 276 281 285 281 287 285 293 289 292
nan nan nan nan nan nan nan nan nan nan nan nan nan nan nan nan nan nan nan nan nan nan 246 251 256 257 253 249 258 252 254 253 251 250 259 271 277 276 275 281 279 278 276 281 284 287 275 282 291
nan nan nan nan nan nan nan nan nan nan nan nan nan nan nan nan nan nan nan nan nan nan nan 247 252 255 256 254 248 244 246 244 256 264 265 269 274 276 277 275 273 277 276 277 279 288 292 280 283
nan nan nan nan nan nan nan nan nan nan nan nan nan nan nan nan nan nan nan nan nan nan nan 238 241 247 248 248 248 255 253 254 253 255 253 256 264 264 262 261 260 261 265 268 277 277 281 282 283
nan nan nan nan nan nan nan nan nan nan nan nan nan nan nan nan nan nan nan nan nan nan nan nan 238 240 244 250 245 242 245 245 249 250 255 258 258 260 258 258 241 248 244 255 267 273 281 282 284
nan nan nan nan nan nan nan nan nan nan nan nan nan nan nan nan nan nan nan nan nan nan nan nan 234 233 233 235 233 240 242 245 247 254 254 256 261 265 273 261 nan 257 236 255 256 270 284 289 284
nan nan nan nan nan nan nan nan nan nan nan nan nan nan nan nan nan nan nan nan nan nan nan nan nan 231 231 233 229 232 235 236 240 244 248 260 262 265 273 nan nan 282 262 250 252 267 281 285 282
nan nan nan nan nan nan nan nan nan nan nan nan nan nan nan nan nan nan nan 197 204 205 nan nan nan 231 234 233 232 232 231 236 237 240 243 248 257 259 262 278 283 287 266 262 266 266 277 280 281
nan nan nan nan nan nan nan nan nan nan nan nan nan nan nan nan nan 188 184 191 202 206 209 217 224 228 233 237 238 238 237 236 243 246 252 252 249 nan 259 267 279 286 283 286 277 272 278 281 281
nan nan nan nan nan nan nan nan nan nan nan nan nan nan nan nan nan 183 193 187 190 204 210 216 216 222 228 232 238 240 242 242 248 nan nan nan nan nan nan 257 265 267 266 272 274 270 274 278 277
nan nan nan nan nan nan nan nan nan nan nan nan nan nan nan nan nan nan 194 202 207 210 212 216 224 218 227 232 236 nan nan nan nan nan nan nan nan nan nan nan nan nan nan 272 269 267 271 273 276
nan nan nan nan nan nan nan nan nan nan nan nan nan nan nan nan nan nan nan 201 206 210 212 216 222 226 231 nan nan nan nan nan nan nan nan nan nan nan nan nan nan nan nan nan nan nan 268 273 269